Reno, NV

12:14 AM PST on February 10, 2016 (GMT -0800)
Reno - Stead

Weather History for KRTS - November, 2011

Change the Weather History Date:

Saturday, November 5, 2011

  Actual Average (KRNO) Record (KRNO)
Temperature  
Mean Temperature 24 °F 46 °F  
Max Temperature 39 °F 60 °F 77 °F (1980)
Min Temperature 10 °F 33 °F 9 °F (1935)
Degree Days  
Heating Degree Days 40 19  
Month to date heating degree days 89  
Since 1 July heating degree days 525  
Cooling Degree Days 0 0  
Month to date cooling degree days 0  
Year to date cooling degree days 839  
Moisture  
Dew Point 15 °F    
Average Humidity 69    
Maximum Humidity 86    
Minimum Humidity 49    
Precipitation  
Precipitation 0.00 in 0.02 in 0.46 in (1963)
Month to date precipitation 0.11  
Year to date precipitation 5.66  
Snow  
Snow - 0.10 in 0.50 in (1920)
Month to date snowfall 0.3  
Since 1 July snowfall 0.7  
Since 1 September snowfall 0.7  
Snow Depth -    
Sea Level Pressure  
Sea Level Pressure 29.87 in    
Wind  
Wind Speed 5 mph ()    
Max Wind Speed 17 mph    
Max Gust Speed 25 mph    
Visibility 9.7 miles    
Events Snow    
T = Trace of Precipitation, MM = Missing Value Source: Averaged Metar Reports

Daily Weather History Graph

Daily Weather History Graph

Search for Another Location

Airport or City:

Trip Planner

Search our weather history database for the weather conditions in past years. The results will help you decide how hot, cold, wet, or windy it might be!

Date:

Astronomy

Nov. 05, 2011 Rise Set
Actual Time 7:32 AM PDT 5:53 PM PDT
Civil Twilight 7:04 AM PDT 6:21 PM PDT
Nautical Twilight 6:32 AM PDT 6:53 PM PDT
Astronomical Twilight 6:00 AM PDT 7:25 PM PDT
Moon 3:12 PM PDT (11/5) 2:47 AM PDT (11/5)
Length of Visible Light 11h 17m
Length of Day
10h 21m
Waxing Gibbous, 79% of the Moon is Illuminated
Nov 5
Waxing Gibbous
Nov 10
Full
Nov 18
Last Quarter
Nov 24
New
Dec 2
First Quarter

Hourly Weather History & Observations

Time (PDT) Temp. Windchill Dew Point Humidity Pressure Visibility Wind Dir Wind Speed Gust Speed Precip Events Conditions
12:15 AM 19.4 °F 8.6 °F 14.0 °F 80% 29.87 in 10.0 mi North 9.2 mph - N/A   Clear
12:35 AM 19.4 °F 14.3 °F 14.0 °F 80% 29.87 in 10.0 mi NNE 3.5 mph - N/A   Clear
12:55 AM 15.8 °F 7.2 °F 10.4 °F 79% 29.86 in 10.0 mi NNW 5.8 mph - N/A   Clear
1:15 AM 14.0 °F 2.9 °F 10.4 °F 86% 29.86 in 10.0 mi North 8.1 mph - N/A   Clear
1:35 AM 15.8 °F - 10.4 °F 79% 29.87 in 10.0 mi Calm Calm - N/A   Clear
1:55 AM 15.8 °F - 10.4 °F 79% 29.87 in 10.0 mi Calm Calm - N/A   Clear
2:15 AM 14.0 °F 8.2 °F 8.6 °F 79% 29.87 in 10.0 mi NW 3.5 mph - N/A   Clear
2:35 AM 12.2 °F 2.9 °F 6.8 °F 79% 29.87 in 10.0 mi North 5.8 mph - N/A   Clear
2:55 AM 14.0 °F 3.9 °F 8.6 °F 79% 29.87 in 10.0 mi North 6.9 mph - N/A   Clear
3:15 AM 14.0 °F 5.1 °F 8.6 °F 79% 29.87 in 10.0 mi NNW 5.8 mph - N/A   Clear
3:35 AM 17.6 °F - 10.4 °F 73% 29.86 in 10.0 mi Calm Calm - N/A   Clear
4:15 AM 15.8 °F 10.2 °F 10.4 °F 79% 29.87 in 10.0 mi NNE 3.5 mph - N/A   Clear
4:35 AM 12.2 °F - 6.8 °F 79% 29.87 in 10.0 mi Calm Calm - N/A   Clear
4:55 AM 14.0 °F - 8.6 °F 79% 29.86 in 10.0 mi Calm Calm - N/A   Clear
5:35 AM 10.4 °F -1.5 °F 5.0 °F 79% 29.86 in 10.0 mi North 8.1 mph - N/A   Clear
5:55 AM 14.0 °F - 8.6 °F 79% 29.86 in 10.0 mi Calm Calm - N/A   Clear
6:15 AM 10.4 °F 4.0 °F 6.8 °F 85% 29.86 in 10.0 mi NW 3.5 mph - N/A   Partly Cloudy
6:35 AM 10.4 °F 0.8 °F 6.8 °F 85% 29.87 in 10.0 mi North 5.8 mph - N/A   Clear
6:55 AM 12.2 °F 2.9 °F 6.8 °F 79% 29.87 in 10.0 mi North 5.8 mph - N/A   Scattered Clouds
7:15 AM 12.2 °F 6.1 °F 6.8 °F 79% 29.88 in 10.0 mi NW 3.5 mph - N/A   Overcast
7:35 AM 12.2 °F 6.1 °F 6.8 °F 79% 29.88 in 10.0 mi NNW 3.5 mph - N/A   Overcast
8:15 AM 17.6 °F - 12.2 °F 79% 29.90 in 10.0 mi Calm Calm - N/A   Overcast
8:35 AM 17.6 °F - 14.0 °F 86% 29.90 in 10.0 mi Calm Calm - N/A   Overcast
9:10 AM 21.2 °F - 15.8 °F 80% 29.91 in 10.0 mi Calm Calm - N/A   Mostly Cloudy
9:35 AM 23.0 °F - 15.8 °F 74% 29.91 in 9.0 mi Calm Calm - N/A   Partly Cloudy
9:55 AM 24.8 °F 20.5 °F 19.4 °F 80% 29.91 in 5.0 mi NNW 3.5 mph - N/A Snow Light Snow
10:15 AM 24.8 °F 19.1 °F 19.4 °F 80% 29.91 in 4.0 mi SE 4.6 mph - N/A   Haze
10:35 AM 28.4 °F - 19.4 °F 69% 29.92 in 9.0 mi Calm Calm - N/A   Scattered Clouds
10:55 AM 30.2 °F 25.4 °F 21.2 °F 69% 29.92 in 10.0 mi West 4.6 mph - N/A   Scattered Clouds
11:15 AM 32.0 °F 26.4 °F 19.4 °F 60% 29.91 in 10.0 mi West 5.8 mph - N/A   Partly Cloudy
11:35 AM 32.0 °F 27.5 °F 21.2 °F 64% 29.91 in 10.0 mi West 4.6 mph - N/A   Scattered Clouds
11:55 AM 32.0 °F - 19.4 °F 60% 29.90 in 10.0 mi Calm Calm - N/A   Mostly Cloudy
12:15 PM 35.6 °F 25.9 °F 19.4 °F 52% 29.90 in 10.0 mi West 16.1 mph - N/A   Mostly Cloudy
12:35 PM 35.6 °F 25.5 °F 19.4 °F 52% 29.89 in 10.0 mi West 17.3 mph 21.9 mph N/A   Mostly Cloudy
12:55 PM 35.6 °F 27.5 °F 21.2 °F 56% 29.89 in 10.0 mi West 11.5 mph 18.4 mph N/A   Scattered Clouds
1:15 PM 33.8 °F 26.4 °F 23.0 °F 65% 29.89 in 10.0 mi WSW 9.2 mph - N/A   Mostly Cloudy
1:35 PM 35.6 °F 30.7 °F 21.2 °F 56% 29.88 in 10.0 mi WNW 5.8 mph - N/A   Overcast
2:15 PM 37.4 °F 27.8 °F 21.2 °F 52% 29.86 in 10.0 mi WSW 17.3 mph 21.9 mph N/A   Overcast
2:35 PM 37.4 °F 28.2 °F 21.2 °F 52% 29.87 in 10.0 mi WSW 16.1 mph 23.0 mph N/A   Overcast
2:55 PM 37.4 °F 27.8 °F 21.2 °F 52% 29.87 in 10.0 mi SW 17.3 mph 25.3 mph N/A   Overcast
3:15 PM 39.2 °F 31.2 °F 21.2 °F 49% 29.86 in 10.0 mi WSW 13.8 mph - N/A   Overcast
3:35 PM 37.4 °F 28.5 °F 21.2 °F 52% 29.86 in 10.0 mi SW 15.0 mph 19.6 mph N/A   Overcast
3:55 PM 37.4 °F 29.3 °F 21.2 °F 52% 29.86 in 10.0 mi WSW 12.7 mph 21.9 mph N/A   Overcast
4:15 PM 37.4 °F 28.2 °F 21.2 °F 52% 29.85 in 10.0 mi WSW 16.1 mph 23.0 mph N/A   Overcast
4:35 PM 35.6 °F 27.1 °F 21.2 °F 56% 29.85 in 10.0 mi WSW 12.7 mph 18.4 mph N/A   Mostly Cloudy
4:55 PM 35.6 °F 26.2 °F 21.2 °F 56% 29.85 in 10.0 mi WSW 15.0 mph 20.7 mph N/A   Mostly Cloudy
5:15 PM 35.6 °F 27.1 °F 21.2 °F 56% 29.85 in 10.0 mi SW 12.7 mph 19.6 mph N/A   Mostly Cloudy
5:35 PM 35.6 °F 27.1 °F 21.2 °F 56% 29.85 in 10.0 mi West 12.7 mph - N/A   Partly Cloudy
5:55 PM 35.6 °F 28.6 °F 21.2 °F 56% 29.84 in 10.0 mi West 9.2 mph - N/A   Clear
6:10 PM 33.8 °F 30.8 °F 21.2 °F 60% 29.84 in 10.0 mi West 3.5 mph - N/A   Scattered Clouds
6:35 PM 35.6 °F - 21.2 °F 56% 29.84 in 10.0 mi Calm Calm - N/A   Overcast
6:55 PM 35.6 °F - 21.2 °F 56% 29.84 in 10.0 mi Calm Calm - N/A   Overcast